GLO7227 SBFL-SBGL

Flight info

Callsign GLO7227
Flight time 1h 4m
Altitude 35000
Route EGDED UN857 AKNUB
Aircraft B738/M-SDE2E3FGHIRWXY/LB1

Departure

Time 2026-04-20 20:06
Airport Hercílio Luz International Airport (SBFL)

Arrival

Time 2026-04-20 21:10
Airport Rio Galeão – Tom Jobim International Airport (SBGL)
Time Latitude Longitude Altitude Speed Heading
2026-04-20 19:44 -27.67305 -48.54507 24 ft 0 kts 212°
2026-04-20 19:55 -27.67295 -48.54500 23 ft 4 kts 220°
2026-04-20 19:55 -27.67279 -48.54477 25 ft 4 kts 255°
2026-04-20 19:55 -27.67279 -48.54450 27 ft 3 kts 299°
2026-04-20 19:56 -27.67283 -48.54443 25 ft 0 kts 301°
2026-04-20 20:00 -27.67282 -48.54444 23 ft 1 kts 301°
2026-04-20 20:00 -27.67264 -48.54477 23 ft 9 kts 301°
2026-04-20 20:01 -27.67230 -48.54541 25 ft 10 kts 302°
2026-04-20 20:01 -27.67193 -48.54603 23 ft 9 kts 315°
2026-04-20 20:01 -27.67132 -48.54621 23 ft 9 kts
2026-04-20 20:01 -27.67075 -48.54594 25 ft 9 kts 10°
2026-04-20 20:02 -27.67030 -48.54636 28 ft 9 kts 303°
2026-04-20 20:02 -27.66998 -48.54693 25 ft 9 kts 303°
2026-04-20 20:02 -27.66965 -48.54748 25 ft 8 kts 303°
2026-04-20 20:02 -27.66935 -48.54803 23 ft 8 kts 301°
2026-04-20 20:03 -27.66908 -48.54857 23 ft 8 kts 299°
2026-04-20 20:03 -27.66872 -48.54927 23 ft 13 kts 300°
2026-04-20 20:03 -27.66824 -48.55019 27 ft 13 kts 301°
2026-04-20 20:03 -27.66770 -48.55099 27 ft 13 kts 327°
2026-04-20 20:04 -27.66696 -48.55131 23 ft 0 kts 342°
2026-04-20 20:04 -27.66691 -48.55133 26 ft 5 kts 342°
2026-04-20 20:04 -27.66615 -48.55139 25 ft 14 kts 15°
2026-04-20 20:05 -27.66597 -48.55052 23 ft 14 kts 118°
2026-04-20 20:05 -27.66653 -48.54941 23 ft 27 kts 122°
2026-04-20 20:05 -27.66902 -48.54497 27 ft 107 kts 122°
2026-04-20 20:05 -27.67409 -48.53546 74 ft 169 kts 120°
2026-04-20 20:06 -27.67992 -48.52358 954 ft 168 kts 117°
2026-04-20 20:06 -27.68488 -48.51215 1930 ft 160 kts 118°
2026-04-20 20:06 -27.68969 -48.50067 2260 ft 167 kts 97°
2026-04-20 20:06 -27.68595 -48.48848 2549 ft 173 kts 43°
2026-04-20 20:07 -27.67596 -48.48073 2950 ft 175 kts 35°
2026-04-20 20:07 -27.66546 -48.47276 3340 ft 198 kts 35°
2026-04-20 20:07 -27.65330 -48.46347 3699 ft 221 kts 35°
2026-04-20 20:07 -27.64032 -48.45346 4299 ft 228 kts 36°
2026-04-20 20:08 -27.62708 -48.44316 4969 ft 231 kts 36°
2026-04-20 20:08 -27.61393 -48.43288 5631 ft 235 kts 36°
2026-04-20 20:08 -27.60042 -48.42224 5952 ft 237 kts 36°
2026-04-20 20:08 -27.58716 -48.41177 5966 ft 236 kts 36°
2026-04-20 20:09 -27.57356 -48.40103 5980 ft 239 kts 36°
2026-04-20 20:09 -27.56008 -48.39037 5966 ft 240 kts 36°
2026-04-20 20:09 -27.54640 -48.37942 5993 ft 240 kts 40°
2026-04-20 20:09 -27.53528 -48.36520 6055 ft 247 kts 57°
2026-04-20 20:10 -27.52520 -48.34822 6336 ft 273 kts 57°
2026-04-20 20:10 -27.51438 -48.33000 7032 ft 284 kts 57°
2026-04-20 20:10 -27.50329 -48.31146 7894 ft 287 kts 57°
2026-04-20 20:10 -27.49219 -48.29302 8739 ft 291 kts 57°
2026-04-20 20:11 -27.48066 -48.27396 9558 ft 296 kts 57°
2026-04-20 20:11 -27.46893 -48.25461 10327 ft 302 kts 57°
2026-04-20 20:11 -27.45663 -48.23437 10618 ft 326 kts 57°
2026-04-20 20:11 -27.44329 -48.21242 10832 ft 349 kts 57°
2026-04-20 20:12 -27.42938 -48.18962 11322 ft 360 kts 57°
2026-04-20 20:12 -27.41517 -48.16637 11974 ft 365 kts 57°
2026-04-20 20:12 -27.40067 -48.14270 12713 ft 369 kts 57°
2026-04-20 20:13 -27.37121 -48.09462 14087 ft 377 kts 57°
2026-04-20 20:13 -27.35634 -48.07036 14738 ft 381 kts 57°
2026-04-20 20:13 -27.34118 -48.04563 15378 ft 385 kts 57°
2026-04-20 20:13 -27.32582 -48.02060 16007 ft 390 kts 57°
2026-04-20 20:14 -27.31033 -47.99538 16637 ft 393 kts 57°
2026-04-20 20:14 -27.29466 -47.96987 17253 ft 397 kts 57°
2026-04-20 20:14 -27.27905 -47.94447 17804 ft 402 kts 57°
2026-04-20 20:14 -27.26307 -47.91848 18360 ft 406 kts 57°
2026-04-20 20:15 -27.24688 -47.89217 18942 ft 409 kts 57°
2026-04-20 20:15 -27.23057 -47.86569 19507 ft 413 kts 57°
2026-04-20 20:15 -27.21414 -47.83902 20048 ft 416 kts 57°
2026-04-20 20:15 -27.19758 -47.81215 20571 ft 420 kts 57°
2026-04-20 20:16 -27.18108 -47.78539 21053 ft 423 kts 56°
2026-04-20 20:16 -27.16416 -47.75797 21543 ft 427 kts 56°
2026-04-20 20:16 -27.14703 -47.73023 22022 ft 430 kts 56°
2026-04-20 20:16 -27.13007 -47.70290 22480 ft 434 kts 56°
2026-04-20 20:17 -27.11242 -47.67519 22927 ft 437 kts 55°
2026-04-20 20:17 -27.09445 -47.64741 23359 ft 440 kts 54°
2026-04-20 20:17 -27.07637 -47.61956 23782 ft 443 kts 54°
2026-04-20 20:17 -27.05814 -47.59147 24191 ft 446 kts 54°
2026-04-20 20:18 -27.03984 -47.56322 24588 ft 449 kts 54°
2026-04-20 20:18 -27.02141 -47.53472 24966 ft 452 kts 54°
2026-04-20 20:18 -27.00286 -47.50602 25322 ft 455 kts 54°
2026-04-20 20:18 -26.98446 -47.47754 25698 ft 458 kts 54°
2026-04-20 20:19 -26.96566 -47.44846 26047 ft 461 kts 54°
2026-04-20 20:19 -26.94678 -47.41929 26388 ft 463 kts 54°
2026-04-20 20:19 -26.92773 -47.38985 26711 ft 467 kts 54°
2026-04-20 20:19 -26.90878 -47.36061 27005 ft 470 kts 54°
2026-04-20 20:20 -26.88949 -47.33088 27343 ft 472 kts 54°
2026-04-20 20:20 -26.86868 -47.30211 27663 ft 475 kts 48°
2026-04-20 20:20 -26.84594 -47.27506 27959 ft 477 kts 45°
2026-04-20 20:20 -26.82286 -47.24890 28258 ft 479 kts 45°
2026-04-20 20:21 -26.79937 -47.22217 28530 ft 482 kts 45°
2026-04-20 20:21 -26.77603 -47.19506 28809 ft 484 kts 46°
2026-04-20 20:21 -26.75277 -47.16753 29090 ft 486 kts 46°
2026-04-20 20:21 -26.72953 -47.13987 29355 ft 488 kts 46°
2026-04-20 20:22 -26.71409 -47.12146 29528 ft 490 kts 47°
2026-04-20 20:22 -26.68320 -47.08447 29897 ft 492 kts 47°
2026-04-20 20:22 -26.65977 -47.05636 30149 ft 494 kts 47°
2026-04-20 20:22 -26.63621 -47.02812 30396 ft 496 kts 47°
2026-04-20 20:23 -26.61255 -46.99982 30591 ft 499 kts 47°
2026-04-20 20:23 -26.58905 -46.97180 30801 ft 502 kts 47°
2026-04-20 20:23 -26.56499 -46.94344 31091 ft 502 kts 47°
2026-04-20 20:23 -26.54082 -46.91513 31443 ft 501 kts 47°
2026-04-20 20:24 -26.51673 -46.88696 31746 ft 501 kts 47°
2026-04-20 20:24 -26.49261 -46.85872 32010 ft 502 kts 47°
2026-04-20 20:24 -26.46877 -46.83079 32262 ft 503 kts 47°
2026-04-20 20:24 -26.44455 -46.80239 32548 ft 504 kts 47°
2026-04-20 20:25 -26.42038 -46.77408 32849 ft 504 kts 48°
2026-04-20 20:25 -26.39616 -46.74572 33132 ft 504 kts 48°
2026-04-20 20:25 -26.37186 -46.71730 33376 ft 505 kts 48°
2026-04-20 20:25 -26.34757 -46.68890 33588 ft 507 kts 48°
2026-04-20 20:26 -26.32313 -46.66035 33850 ft 508 kts 48°
2026-04-20 20:26 -26.29877 -46.63191 34170 ft 507 kts 49°
2026-04-20 20:26 -26.27472 -46.60385 34482 ft 506 kts 49°
2026-04-20 20:26 -26.25038 -46.57545 34745 ft 506 kts 49°
2026-04-20 20:27 -26.22596 -46.54698 34974 ft 507 kts 49°
2026-04-20 20:27 -26.20156 -46.51855 35064 ft 510 kts 49°
2026-04-20 20:27 -26.15254 -46.46147 35076 ft 511 kts 49°
2026-04-20 20:28 -26.10345 -46.40443 35065 ft 506 kts 49°
2026-04-20 20:28 -26.05477 -46.34792 35084 ft 505 kts 49°
2026-04-20 20:29 -26.00625 -46.29164 35084 ft 505 kts 49°
2026-04-20 20:29 -25.95777 -46.23550 35078 ft 505 kts 49°
2026-04-20 20:30 -25.90892 -46.17900 35070 ft 506 kts 49°
2026-04-20 20:30 -25.85997 -46.12245 35066 ft 506 kts 49°
2026-04-20 20:31 -25.81131 -46.06632 35067 ft 506 kts 49°
2026-04-20 20:31 -25.76226 -46.00979 35068 ft 506 kts 49°
2026-04-20 20:32 -25.71356 -45.95374 35068 ft 507 kts 49°
2026-04-20 20:32 -25.66455 -45.89740 35070 ft 507 kts 49°
2026-04-20 20:33 -25.61583 -45.84151 35066 ft 507 kts 49°
2026-04-20 20:33 -25.56667 -45.78522 35051 ft 507 kts 49°
2026-04-20 20:34 -25.51747 -45.72892 35044 ft 507 kts 49°
2026-04-20 20:34 -25.46865 -45.67312 35049 ft 507 kts 49°
2026-04-20 20:35 -25.41968 -45.61720 35046 ft 506 kts 49°
2026-04-20 20:35 -25.37879 -45.57057 35046 ft 506 kts 49°
2026-04-20 20:36 -25.32971 -45.51466 35046 ft 505 kts 49°
2026-04-20 20:36 -25.28069 -45.45889 35051 ft 505 kts 49°
2026-04-20 20:37 -25.23195 -45.40351 35057 ft 504 kts 49°
2026-04-20 20:37 -25.18291 -45.34785 35057 ft 503 kts 49°
2026-04-20 20:38 -25.13433 -45.29278 35054 ft 503 kts 49°
2026-04-20 20:38 -25.08537 -45.23735 35053 ft 503 kts 49°
2026-04-20 20:39 -25.03677 -45.18240 35058 ft 502 kts 49°
2026-04-20 20:39 -24.98788 -45.12717 35047 ft 502 kts 49°
2026-04-20 20:40 -24.93895 -45.07197 35044 ft 502 kts 49°
2026-04-20 20:40 -24.89047 -45.01736 35048 ft 501 kts 49°
2026-04-20 20:41 -24.84162 -44.96238 35043 ft 501 kts 49°
2026-04-20 20:41 -24.79296 -44.90769 35045 ft 501 kts 49°
2026-04-20 20:42 -24.74399 -44.85271 35048 ft 501 kts 49°
2026-04-20 20:42 -24.69550 -44.79833 35047 ft 501 kts 49°
2026-04-20 20:43 -24.64660 -44.74355 35047 ft 500 kts 49°
2026-04-20 20:43 -24.59774 -44.68889 35047 ft 500 kts 49°
2026-04-20 20:44 -24.54905 -44.63446 35049 ft 500 kts 49°
2026-04-20 20:44 -24.49927 -44.58092 35040 ft 503 kts 42°
2026-04-20 20:45 -24.43989 -44.54068 35059 ft 506 kts 28°
2026-04-20 20:45 -24.37655 -44.50639 35041 ft 506 kts 28°
2026-04-20 20:46 -24.31342 -44.47189 35048 ft 506 kts 28°
2026-04-20 20:46 -24.25091 -44.43707 34929 ft 507 kts 29°
2026-04-20 20:47 -24.21912 -44.41927 34269 ft 512 kts 29°
2026-04-20 20:47 -24.18745 -44.40155 33624 ft 510 kts 29°
2026-04-20 20:47 -24.15612 -44.38405 32916 ft 510 kts 29°
2026-04-20 20:47 -24.12450 -44.36640 32179 ft 510 kts 29°
2026-04-20 20:48 -24.09288 -44.34877 31440 ft 510 kts 29°
2026-04-20 20:48 -24.06137 -44.33123 30898 ft 504 kts 29°
2026-04-20 20:48 -24.03051 -44.31405 30346 ft 499 kts 29°
2026-04-20 20:48 -23.99960 -44.29685 29803 ft 494 kts 29°
2026-04-20 20:49 -23.96909 -44.27988 29259 ft 489 kts 29°
2026-04-20 20:49 -23.93901 -44.26271 28699 ft 483 kts 33°
2026-04-20 20:49 -23.91233 -44.24114 28139 ft 473 kts 46°
2026-04-20 20:49 -23.89059 -44.21529 27693 ft 461 kts 56°
2026-04-20 20:50 -23.87337 -44.18614 27254 ft 449 kts 68°
2026-04-20 20:50 -23.86035 -44.15541 26859 ft 441 kts 70°
2026-04-20 20:50 -23.84756 -44.12513 26414 ft 437 kts 69°
2026-04-20 20:50 -23.83459 -44.09535 26031 ft 441 kts 68°
2026-04-20 20:51 -23.81756 -44.06699 25565 ft 454 kts 49°
2026-04-20 20:51 -23.79242 -44.04592 25166 ft 457 kts 30°
2026-04-20 20:51 -23.76281 -44.03359 24723 ft 457 kts 12°
2026-04-20 20:51 -23.73162 -44.03013 24322 ft 454 kts
2026-04-20 20:52 -23.70002 -44.02866 23877 ft 452 kts
2026-04-20 20:52 -23.66860 -44.02737 23437 ft 450 kts
2026-04-20 20:52 -23.63738 -44.02582 23005 ft 448 kts
2026-04-20 20:52 -23.60667 -44.02400 22582 ft 445 kts
2026-04-20 20:53 -23.57589 -44.02201 22157 ft 441 kts
2026-04-20 20:53 -23.54539 -44.02001 21772 ft 437 kts
2026-04-20 20:53 -23.51515 -44.01805 21410 ft 432 kts
2026-04-20 20:53 -23.48528 -44.01613 21049 ft 428 kts
2026-04-20 20:54 -23.45558 -44.01425 20581 ft 427 kts
2026-04-20 20:54 -23.42589 -44.01238 20087 ft 425 kts
2026-04-20 20:54 -23.39664 -44.01053 19616 ft 423 kts
2026-04-20 20:54 -23.36723 -44.00868 19136 ft 420 kts
2026-04-20 20:55 -23.33805 -44.00685 18655 ft 416 kts
2026-04-20 20:55 -23.30923 -44.00503 18181 ft 412 kts
2026-04-20 20:55 -23.28084 -44.00324 17720 ft 407 kts
2026-04-20 20:55 -23.25302 -44.00149 17262 ft 403 kts
2026-04-20 20:56 -23.22500 -43.99973 16804 ft 399 kts
2026-04-20 20:56 -23.19742 -43.99799 16353 ft 394 kts
2026-04-20 20:56 -23.17017 -43.99627 15906 ft 390 kts
2026-04-20 20:56 -23.14316 -43.99457 15466 ft 386 kts
2026-04-20 20:57 -23.11673 -43.99291 15032 ft 383 kts
2026-04-20 20:57 -23.09022 -43.99125 14603 ft 379 kts
2026-04-20 20:57 -23.06397 -43.98960 14169 ft 375 kts
2026-04-20 20:57 -23.03794 -43.98796 13744 ft 372 kts
2026-04-20 20:58 -23.01253 -43.98637 13330 ft 368 kts
2026-04-20 20:58 -22.98703 -43.98477 12910 ft 365 kts
2026-04-20 20:58 -22.96172 -43.98286 12490 ft 363 kts
2026-04-20 20:58 -22.93798 -43.97389 12061 ft 362 kts 32°
2026-04-20 20:59 -22.91933 -43.95644 11800 ft 356 kts 51°
2026-04-20 20:59 -22.90636 -43.93367 11537 ft 353 kts 64°
2026-04-20 20:59 -22.89564 -43.90961 11245 ft 352 kts 66°
2026-04-20 20:59 -22.88548 -43.88603 10965 ft 346 kts 66°
2026-04-20 21:00 -22.87540 -43.86267 10666 ft 339 kts 66°
2026-04-20 21:00 -22.86537 -43.83974 10423 ft 331 kts 65°
2026-04-20 21:00 -22.85549 -43.81736 10171 ft 325 kts 65°
2026-04-20 21:00 -22.84588 -43.79574 9986 ft 316 kts 65°
2026-04-20 21:01 -22.83656 -43.77487 9954 ft 298 kts 65°
2026-04-20 21:01 -22.82751 -43.75461 9510 ft 297 kts 65°
2026-04-20 21:01 -22.81859 -43.73468 9235 ft 290 kts 65°
2026-04-20 21:01 -22.81002 -43.71500 8973 ft 286 kts 70°
2026-04-20 21:02 -22.80451 -43.69448 8636 ft 287 kts 78°
2026-04-20 21:02 -22.80006 -43.67327 8294 ft 288 kts 78°
2026-04-20 21:02 -22.79548 -43.65207 7942 ft 287 kts 78°
2026-04-20 21:02 -22.79074 -43.63099 7489 ft 286 kts 77°
2026-04-20 21:03 -22.78602 -43.61040 7155 ft 280 kts 77°
2026-04-20 21:03 -22.78129 -43.59009 6865 ft 275 kts 77°
2026-04-20 21:03 -22.77660 -43.56999 6578 ft 274 kts 77°
2026-04-20 21:03 -22.77140 -43.55040 6213 ft 275 kts 70°
2026-04-20 21:04 -22.76382 -43.53123 5819 ft 277 kts 66°
2026-04-20 21:04 -22.75584 -43.51199 5405 ft 280 kts 66°
2026-04-20 21:04 -22.74819 -43.49326 5357 ft 266 kts 67°
2026-04-20 21:04 -22.74097 -43.47532 5263 ft 250 kts 67°
2026-04-20 21:05 -22.73426 -43.45857 5155 ft 235 kts 68°
2026-04-20 21:05 -22.72810 -43.44306 5041 ft 219 kts 68°
2026-04-20 21:05 -22.72223 -43.42828 4937 ft 207 kts 68°
2026-04-20 21:05 -22.71829 -43.41411 4795 ft 186 kts 93°
2026-04-20 21:06 -22.72138 -43.40155 4575 ft 169 kts 121°
2026-04-20 21:06 -22.72788 -43.39115 4271 ft 160 kts 128°
2026-04-20 21:06 -22.73417 -43.38169 3989 ft 147 kts 129°
2026-04-20 21:06 -22.74004 -43.37285 3547 ft 146 kts 129°
2026-04-20 21:07 -22.74594 -43.36397 3109 ft 144 kts 129°
2026-04-20 21:07 -22.75179 -43.35519 2691 ft 142 kts 129°
2026-04-20 21:07 -22.75755 -43.34653 2282 ft 140 kts 130°
2026-04-20 21:07 -22.76322 -43.33798 1821 ft 141 kts 129°
2026-04-20 21:08 -22.76891 -43.32939 1579 ft 139 kts 130°
2026-04-20 21:08 -22.77454 -43.32093 1375 ft 141 kts 129°
2026-04-20 21:08 -22.78034 -43.31220 1197 ft 143 kts 130°
2026-04-20 21:08 -22.78614 -43.30344 992 ft 142 kts 130°
2026-04-20 21:09 -22.79187 -43.29480 803 ft 141 kts 130°
2026-04-20 21:09 -22.79740 -43.28628 619 ft 139 kts 128°
2026-04-20 21:09 -22.80281 -43.27760 391 ft 139 kts 129°
2026-04-20 21:09 -22.80850 -43.26914 216 ft 138 kts 131°
2026-04-20 21:10 -22.81415 -43.26090 49 ft 134 kts 128°
2026-04-20 21:10 -22.81910 -43.25356 24 ft 93 kts 127°
2026-04-20 21:10 -22.82167 -43.24976 23 ft 33 kts 126°
2026-04-20 21:10 -22.82270 -43.24822 18 ft 24 kts 125°
2026-04-20 21:11 -22.82337 -43.24666 19 ft 23 kts 103°
2026-04-20 21:11 -22.82346 -43.24615 20 ft 1 kts 97°
2026-04-20 21:11 -22.82351 -43.24573 19 ft 11 kts 97°
2026-04-20 21:11 -22.82359 -43.24510 18 ft 1 kts 98°
2026-04-20 21:12 -22.82360 -43.24495 18 ft 4 kts 89°
2026-04-20 21:12 -22.82342 -43.24450 17 ft 9 kts 27°
2026-04-20 21:12 -22.82298 -43.24488 18 ft 9 kts 301°
2026-04-20 21:12 -22.82267 -43.24544 19 ft 9 kts 301°
2026-04-20 21:13 -22.82236 -43.24598 19 ft 8 kts 307°
2026-04-20 21:13 -22.82202 -43.24648 20 ft 8 kts 307°
2026-04-20 21:13 -22.82169 -43.24695 18 ft 8 kts 307°
2026-04-20 21:13 -22.82137 -43.24742 21 ft 8 kts 306°
2026-04-20 21:14 -22.82106 -43.24787 23 ft 7 kts 306°
2026-04-20 21:14 -22.82077 -43.24831 23 ft 7 kts 306°
2026-04-20 21:14 -22.82048 -43.24874 23 ft 7 kts 306°
2026-04-20 21:14 -22.82021 -43.24916 25 ft 7 kts 305°
2026-04-20 21:15 -22.81994 -43.24958 23 ft 7 kts 303°
2026-04-20 21:15 -22.81968 -43.25001 22 ft 8 kts 303°
2026-04-20 21:15 -22.81928 -43.25067 25 ft 13 kts 303°
2026-04-20 21:15 -22.81873 -43.25152 24 ft 15 kts 304°
2026-04-20 21:16 -22.81803 -43.25244 22 ft 16 kts 330°
2026-04-20 21:16 -22.81703 -43.25213 24 ft 16 kts 33°
2026-04-20 21:16 -22.81617 -43.25142 20 ft 15 kts 38°
2026-04-20 21:16 -22.81532 -43.25074 22 ft 15 kts 35°
2026-04-20 21:17 -22.81439 -43.25061 22 ft 14 kts 340°
2026-04-20 21:17 -22.81347 -43.25088 22 ft 14 kts
2026-04-20 21:17 -22.81298 -43.25084 21 ft 1 kts
2026-04-20 21:17 -22.81271 -43.25085 21 ft 0 kts 358°
2026-04-20 21:18 -22.81270 -43.25085 21 ft 0 kts 358°